sat.trackr.live / text

‹ back to catalog

IRIDIUM 141

NORAD 43077 · 2017-083H

PAYLOAD ACTIVE UNKNOWN

§ Identity

Operator
Country
US
Launch date
2017-12-23
Launch site
AFWTR
Launch vehicle
Mass (kg)
RCS (m²)

Purposes: comms

External: N2YO · Heavens-Above · Gunter

§ Orbital elements

Epoch: 2026-09-20T00:25:31.142784Z

Period
100.40 min
Inclination
86.3909°
Eccentricity
0.0002205
Mean motion
14.34217337 rev/d
Perigee alt
776.1 km
Apogee alt
779.2 km
Semi-major
7,155.8 km
B*
-1.0975e-5
RAAN
282.3418°
Arg perigee
92.1046°
Mean anomaly
268.0402°
Rev number
45,776

§ Raw data

IRIDIUM 1411 43077U 17083H   26263.01772156 -.00000011  00000+0 -10975-4 0  99972 43077  86.3909 282.3418 0002205  92.1046 268.0402 14.34217337457763

JSON: /api/v1/satellites/43077 · /tle

For live sub-satellite position, see the globe view (requires WebGL).

§ Visibility from observer

Set your observer location to see the next 7 days of passes ≥ 10°. The values pass through the URL so the page stays shareable.

No JS? Fill the form by hand. The geolocation button needs JavaScript.